Location: Unspecified
(0.0000°N, 0.0000°E)
Time: 06:58:37
(UTC+00:00)

SRMSAT - Pass Details

Date: 27 March 2019
Orbit: 849 x 866 km, 20.0° (Epoch: 19 April)

Event Time Altitude Azimuth Distance (km) Brightness Sun altitude
Rises 18:43:23 0° 224° (SW) 3,417 ? -9.5°
Reaches altitude 10° 18:47:40 10° 195° (SSW) 2,476 ? -10.6°
Maximum altitude 18:50:06 13° 171° (S) 2,293 ? -11.2°
Drops below altitude 10° 18:52:34 10° 146° (SE) 2,470 ? -11.8°
Enters shadow 18:54:03 - 134° (SE) 2,728 ? -12.2°
